This is the latest recevied weather packets stored in our database for station/object WA4IKQ. If no packets are shown the sender has not sent any weather packets the latest 10 day(s).
| Time | Temp. | Humidity | Pressure | Rain* | Wind** | Luminosity | Snow |
|---|---|---|---|---|---|---|---|
| 1777773853 | 22.22° C | 87% | 1012 hPa | 0 mm | 1.34 m/s, 226° | - | - |
| 1777773551 | 22.22° C | 87% | 1011.8 hPa | 0 mm | 1.79 m/s, 173° | - | - |
| 1777773501 | 22.22° C | 87% | 1011.5 hPa | 0 mm | 2.24 m/s, 169° | - | - |
| 1777773250 | 22.22° C | 87% | 1011.5 hPa | 0 mm | 2.24 m/s, 169° | - | - |
| 1777773192 | 22.22° C | 86% | 1011.3 hPa | 0 mm | 0.89 m/s, 236° | - | - |
| 1777772949 | 22.22° C | 86% | 1011.3 hPa | 0 mm | 0.89 m/s, 236° | - | - |
| 1777772653 | 22.22° C | 86% | 1011.2 hPa | 0 mm | 1.34 m/s, 217° | - | - |
| 1777772492 | 22.22° C | 86% | 1011.2 hPa | 0 mm | 0.89 m/s, 236° | - | - |
| 1777772048 | 22.22° C | 86% | 1011.2 hPa | 0 mm | 0.89 m/s, 236° | - | - |
| 1777771150 | 22.22° C | 86% | 1011.1 hPa | 0 mm | 3.13 m/s, 201° | - | - |
| 1777771102 | 22.22° C | 86% | 1011.1 hPa | 0 mm | 1.34 m/s, 207° | - | - |
| 1777770847 | 22.22° C | 86% | 1011.1 hPa | 0 mm | 1.34 m/s, 207° | - | - |
| 1777769769 | 22.22° C | 86% | 1010.6 hPa | 0 mm | 1.79 m/s, 195° | - | - |
| 1777769648 | 22.22° C | 86% | 1010.8 hPa | 0 mm | 1.79 m/s, 211° | - | - |
| 1777769348 | 22.22° C | 86% | 1010.6 hPa | 0 mm | 1.79 m/s, 195° | - | - |
| 1777769118 | 22.22° C | 86% | 1010.8 hPa | 0 mm | 0.45 m/s, 167° | - | - |
| 1777768745 | 22.22° C | 86% | 1010.8 hPa | 0 mm | 0.45 m/s, 167° | - | - |
| 1777768619 | 22.22° C | 86% | 1010.9 hPa | 0 mm | 1.79 m/s, 212° | - | - |
| 1777768445 | 22.22° C | 86% | 1010.9 hPa | 0 mm | 1.79 m/s, 212° | - | - |
| 1777768430 | 22.22° C | 86% | 1010.9 hPa | 0 mm | 1.34 m/s, 208° | - | - |
| 1777768147 | 22.22° C | 86% | 1010.9 hPa | 0 mm | 1.34 m/s, 208° | - | - |
| 1777767788 | 22.22° C | 86% | 1010.7 hPa | 0 mm | 1.34 m/s, 228° | - | - |
| 1777767549 | 22.22° C | 86% | 1010.7 hPa | 0 mm | 1.34 m/s, 228° | - | - |
| 1777767379 | 21.67° C | 86% | 1010.5 hPa | 0 mm | 1.79 m/s, 243° | - | - |
| 1777767248 | 21.67° C | 86% | 1010.6 hPa | 0 mm | 1.79 m/s, 203° | - | - |
* Rain latest hour (hover to see other rain measurements)
** Current wind speed in m/s (hover to see current wind gust speed)